Regional Weather Roundup
Issued by NWS Sterling, VA

Home | Current Version | Previous Version | Graphics & Text | Print | Product List | Glossary On
Versions: 1 2 3 4 5 6 7 8 9 10 11 12 13 14 15 16 17 18 19 20 21 22 23 24 25 26 27 28 29 30 31 32 33 34 35 36 37 38 39 40 41 42 43 44 45 46 47 48 49 50
000
ASUS41 KLWX 301010
RWRLWX

REGIONAL WEATHER ROUNDUP
NATIONAL WEATHER SERVICE BALTIMORE MD/WASHINGTON DC
600 AM EDT SAT AUG 30 2014

Note: "FAIR" indicates few or no clouds below 12,000 feet
with no significant weather and/or obstructions to visibility.
 TC=TEMPERATURE CELSIUS

 * =Non NWS site. Station does not report precipitation (e.g. rain,
    snow, etc.), thunder, or fog.

DCZ001-MDZ009-015-VAZ040>042-051-053>054-301100-
WASHINGTON METRO

CITY           SKY/WX    TMP DP  RH WIND       PRES   REMARKS
WASHINGTON NAT CLOUDY    71  61  70 S6        30.23R
DULLES         PTCLDY    66  63  88 S5        30.22R
ANDREWS AFB    CLOUDY    66  62  87 S2        30.23R FOG
QUANTICO       CLOUDY    72  63  73 S9        30.22S
COLLEGE PARK*  CLOUDY    68  63  83 CALM      30.23R
LEESBURG*      CLOUDY    68  64  88 S3        30.23R
MANASSAS*      CLOUDY    66  64  94 CALM      30.22R
GAITHERSBURG*  CLOUDY    64  61  88 CALM      30.27R

$$

MDZ006>007-011-014-301100-
BALTIMORE METRO

CITY           SKY/WX    TMP DP  RH WIND       PRES   REMARKS
BWI AIRPORT    CLOUDY    67  62  84 E5        30.22R
MD SCIENCE CTR   N/A     71  61  70 MISG      30.23R
MARTIN STATE   MOCLDY    70  64  83 E7        30.24R
ANNAPOLIS      CLOUDY    71  63  75 SE12      30.22R
FORT MEADE*    CLOUDY    61  59  94 CALM      30.25R

$$

MDZ012-015-019>023-301100-
MARYLAND EASTERN SHORE

CITY           SKY/WX    TMP DP  RH WIND       PRES   REMARKS
OCEAN CITY     MOCLDY    60  57  89 CALM      30.24R
SALISBURY      CLEAR     60  55  83 CALM      30.24R
BAY BRIDGE AP*   N/A     68  61  77 SE3       30.23R
CAMBRIDGE*     CLOUDY    63  59  88 CALM      30.22S
EASTON*        CLOUDY    64  64 100 CALM      30.27R

$$

MDZ017>025-301100-
SOUTHERN MARYLAND

CITY           SKY/WX    TMP DP  RH WIND       PRES   REMARKS
PATUXENT RIVER MOCLDY    68  62  81 CALM      30.22R
ST INIGOES     PTCLDY    66  60  81 NE3       30.21R
LEONARDTOWN*   CLOUDY    68  59  73 CALM      30.24R

$$

MDZ003>005-301100-
NORTH CENTRAL MARYLAND

CITY           SKY/WX    TMP DP  RH WIND       PRES   REMARKS
FREDERICK*     CLOUDY    64  64 100 CALM      30.25R
HAGERSTOWN APT CLOUDY    67  59  75 S5        30.21R
WESTMINSTER*   CLOUDY    64  61  88 SE5       30.24R

$$

MDZ501>502-301100-
WESTERN MARYLAND

CITY           SKY/WX    TMP DP  RH WIND       PRES   REMARKS
OAKLAND*       CLEAR     61 N/A N/A S8        30.23R
CUMBERLAND*    CLEAR     61  55  82 CALM      30.22S

$$

VAZ025>031-301100-
SHENANDOAH VALLEY

CITY           SKY/WX    TMP DP  RH WIND       PRES   REMARKS
WINCHESTER*    CLEAR     64  59  82 S5        30.20S
STAUNTON*      PTCLDY    67  61  81 S3        30.23S

$$

WVZ021-048>050-054>055-301100-
EASTERN WEST VIRGINIA PANHANDLE

CITY           SKY/WX    TMP DP  RH WIND       PRES   REMARKS
MARTINSBURG    CLEAR     62  56  80 CALM      30.21R
PETERSBURG*    NOT AVBL

$$

VAZ036>039-050-301100-
CENTRAL FOOTHILLS

CITY           SKY/WX    TMP DP  RH WIND       PRES   REMARKS
CHARLOTTESVILL CLOUDY    68  62  81 CALM      30.22R
ORANGE*        CLOUDY    66  61  82 CALM      30.23S

$$

VAZ055>057-301100-
NORTH AND CENTRAL PIEDMONT

CITY           SKY/WX    TMP DP  RH WIND       PRES   REMARKS
FREDERICKSBRG* MOCLDY    67  64  87 CALM      30.21S
STAFFORD*      CLOUDY    65  65 100 CALM      30.25S

$$

NCZ024-NYZ072-PAZ021-071-VAZ022-071-301100-
OTHER REGIONAL OBSERVATIONS

CITY           SKY/WX    TMP DP  RH WIND       PRES   REMARKS
NEW YORK CITY  MOCLDY    68  55  63 VRB3      30.30R
PHILADELPHIA   PTCLDY    62  58  86 E5        30.25S
PITTSBURGH     MOCLDY    63  59  87 CALM      30.11R
ROANOKE        PTCLDY    70  68  93 SE3       30.24R
RICHMOND       CLOUDY    70  63  78 CALM      30.22R
RALEIGH        CLOUDY    72  67  84 SE5       30.20R

$$

ANZ530>537-301100-
MARINE OBSERVATIONS

STATION/POSITION TIME  TEMP    WIND        PRES
                       AIR SEA DIR/SP/G
                 (UTC) (F)     (DEG/KT/KT) (MB)
THOMAS PT LIGHT  1000   70 77  130/  9/  9 1024.4R
BALT KEY BRIDGE  1000   76     120/  6/  8 1023.0R
COVE POINT       1000   71     150/  9/ 12 1023.1R
LEWISETTA        1000   71 78  140/  3/  4 1022.9R
SOLOMONS ISLAND  1000      78                N/A
PINEY POINT      1000          170/  9/ 11   N/A

$$



USA.gov is the U.S. government's official web portal to all federal, state and local government web resources and services.